Location: Bukit Nyuki
(2.5885°N, 113.7476°E)
Time: 14:39:07
(UTC+00:00)

Cosmos 2315 Rocket - Pass Details

Date: 18 May 2021
Orbit: 965 x 1003 km, 82.9° (Epoch: 15 June)

Event Time Altitude Azimuth Distance (km) Brightness Sun altitude
Rises 12:13:02 0° 189° (S) 3,706 6.9 -25.1°
Reaches altitude 10° 12:15:34 10° 192° (SSW) 2,760 6.2 -25.7°
Maximum altitude 12:21:51 65° 273° (W) 1,087 4.3 -27.2°
Drops below altitude 10° 12:28:09 10° 354° (N) 2,764 6.7 -28.6°
Sets 12:30:42 0° 358° (N) 3,712 7.4 -29.2°
